Weather History for KSBA - October, 2011

Change the Weather History Date:

Friday, October 14, 2011

  Actual Average Record
Temperature  
Mean Temperature 66 °F 62 °F  
Max Temperature 78 °F 72 °F 100 °F (1961)
Min Temperature 54 °F 52 °F 41 °F (1960)
Degree Days  
Heating Degree Days 0 4  
Month to date heating degree days 28 42  
Since 1 July heating degree days 164 137  
Cooling Degree Days 1 0  
Month to date cooling degree days 20 11  
Year to date cooling degree days 105 182  
Growing Degree Days 15 (Base 50)    
Moisture  
Dew Point 56 °F    
Average Humidity 73    
Maximum Humidity 100    
Minimum Humidity 46    
Precipitation  
Precipitation 0.00 in 0.02 in 1.95 in (2009)
Month to date precipitation 0.84 0.27  
Year to date precipitation 15.40 12.73  
Since 1 July precipitation 0.84 0.68  
Sea Level Pressure  
Sea Level Pressure 29.84 in    
Wind  
Wind Speed 5 mph (SSE)    
Max Wind Speed 14 mph    
Max Gust Speed 21 mph    
Visibility 7 miles    
Events Fog    
T = Trace of Precipitation, MM = Missing Value Source: NWS Daily Summary

Daily Weather History Graph

Daily Weather History Graph

Search for Another Location

Airport or City:

Trip Planner

Search our weather history database for the weather conditions in past years. The results will help you decide how hot, cold, wet, or windy it might be!

Date:

Astronomy

Oct. 14, 2011 Rise Set
Actual Time 7:03 AM PDT 6:26 PM PDT
Civil Twilight 6:38 AM PDT 6:51 PM PDT
Nautical Twilight 6:09 AM PDT 7:20 PM PDT
Astronomical Twilight 5:40 AM PDT 7:49 PM PDT
Moon 7:52 PM PDT (10/14) 9:28 AM PDT (10/14)
Length of Visible Light 12h 13m
Length of Day
11h 22m
Waning Gibbous, 94% of the Moon is Illuminated
Oct 14
Waning Gibbous
Oct 19
Last Quarter
Oct 26
New
Nov 2
First Quarter
Nov 10
Full

Hourly Weather History & Observations

Time (PDT) Temp. Dew Point Humidity Pressure Visibility Wind Dir Wind Speed Gust Speed Precip Events Conditions
12:53 AM 62.1 °F 53.1 °F 72% 29.80 in 10.0 mi Calm Calm - N/A   Clear
1:53 AM 60.1 °F 52.0 °F 75% 29.81 in 10.0 mi Calm Calm - N/A   Clear
2:53 AM 61.0 °F 51.1 °F 70% 29.80 in 10.0 mi Calm Calm - N/A   Clear
3:53 AM 59.0 °F 50.0 °F 72% 29.79 in 10.0 mi Calm Calm - N/A   Clear
4:53 AM 57.9 °F 51.1 °F 78% 29.79 in 10.0 mi Calm Calm - N/A   Clear
5:53 AM 55.4 °F 50.0 °F 82% 29.80 in 10.0 mi Calm Calm - N/A   Clear
6:53 AM 55.9 °F 50.0 °F 80% 29.82 in 10.0 mi Calm Calm - N/A   Clear
7:53 AM 57.9 °F 50.0 °F 75% 29.83 in 10.0 mi Calm Calm - N/A   Clear
8:53 AM 69.1 °F 52.0 °F 54% 29.85 in 10.0 mi SSE 3.5 mph - N/A   Clear
9:53 AM 72.0 °F 50.0 °F 46% 29.86 in 10.0 mi SE 6.9 mph - N/A   Clear
10:53 AM 71.1 °F 52.0 °F 51% 29.86 in 10.0 mi SSE 9.2 mph - N/A   Clear
12:53 PM 75.9 °F 57.0 °F 52% 29.84 in 10.0 mi SSE 11.5 mph - N/A   Mostly Cloudy
1:53 PM 73.9 °F 57.0 °F 55% 29.83 in 10.0 mi SSE 12.7 mph - N/A   Clear
2:53 PM 73.9 °F 57.9 °F 57% 29.81 in 10.0 mi SSE 11.5 mph - N/A   Scattered Clouds
3:53 PM 71.1 °F 63.0 °F 75% 29.83 in 10.0 mi SE 5.8 mph - N/A   Scattered Clouds
4:53 PM 71.1 °F 60.1 °F 68% 29.81 in 10.0 mi SE 3.5 mph - N/A   Clear
5:53 PM 64.0 °F 60.1 °F 87% 29.82 in 10.0 mi WSW 10.4 mph - N/A   Clear
6:22 PM 60.8 °F 59.0 °F 94% 29.83 in 6.0 mi West 9.2 mph - N/A   Scattered Clouds
6:30 PM 60.8 °F 59.0 °F 94% 29.83 in 1.8 mi West 9.2 mph - N/A   Mostly Cloudy
6:34 PM 60.8 °F 59.0 °F 94% 29.83 in 6.0 mi West 9.2 mph - N/A   Mostly Cloudy
6:53 PM 60.1 °F 59.0 °F 96% 29.83 in 0.5 mi West 8.1 mph - N/A Fog Fog
7:53 PM 59.0 °F 59.0 °F 100% 29.84 in 0.5 mi WSW 4.6 mph - N/A Fog Fog
8:00 PM 59.0 °F 59.0 °F 100% 29.84 in 0.2 mi WSW 3.5 mph - N/A Fog Fog
8:53 PM 60.1 °F 59.0 °F 96% 29.85 in 0.5 mi Calm Calm - N/A Fog Fog
9:53 PM 60.8 °F 60.8 °F 100% 29.88 in 0.5 mi ESE 8.1 mph - N/A Fog Fog
10:28 PM 60.8 °F 60.8 °F 100% 29.89 in 2.5 mi SE 6.9 mph - N/A   Overcast
10:53 PM 61.0 °F 60.1 °F 97% 29.90 in 5.0 mi East 8.1 mph - N/A   Overcast
11:03 PM 60.8 °F 59.0 °F 94% 29.90 in 5.0 mi ESE 9.2 mph - N/A   Overcast
11:53 PM 62.1 °F 59.0 °F 90% 29.91 in 5.0 mi East 8.1 mph - N/A   Overcast